timestamp,surface_pressure_avg,surface_temp_avg,battery_voltage,lat,long
2019-01-22 00:00:00+00:00,361.9747,1.2,12.81,47.84626,-54.09684
2019-01-22 00:10:00+00:00,363.1429,1.2,12.73,47.84626,-54.09684
2019-01-22 00:20:00+00:00,375.6846,1.2,12.81,47.84626,-54.09684
2019-01-22 00:30:00+00:00,359.6395,1.2,12.81,47.84626,-54.09684
2019-01-22 00:40:00+00:00,365.7064,1.2,12.89,47.84626,-54.09684
2019-01-22 00:50:00+00:00,369.5713,1.2,12.89,47.84626,-54.09684
2019-01-22 01:00:00+00:00,362.8414,1.2,12.81,47.84626,-54.09684
2019-01-22 01:10:00+00:00,362.3896,1.2,12.73,47.84626,-54.09684
2019-01-22 01:20:00+00:00,352.4296,1.2,12.81,47.84626,-54.09684
2019-01-22 01:30:00+00:00,344.038,1.2,12.81,47.84626,-54.09684
2019-01-22 01:40:00+00:00,330.718,1.2,12.89,47.84626,-54.09684
2019-01-22 01:50:00+00:00,322.7663,1.18,12.89,47.84626,-54.09684
2019-01-22 02:00:00+00:00,314.1514,1.19,12.81,47.84626,-54.09684
2019-01-22 02:10:00+00:00,299.5063,1.2,12.73,47.84626,-54.09684
2019-01-22 02:20:00+00:00,290.2047,1.2,12.81,47.84626,-54.09684
2019-01-22 02:30:00+00:00,299.5663,1.19,12.81,47.84626,-54.09684
2019-01-22 02:40:00+00:00,289.2081,1.19,12.89,47.84626,-54.09684
2019-01-22 02:50:00+00:00,261.4514,1.16,12.89,47.84626,-54.09684
2019-01-22 03:00:00+00:00,244.0447,1.16,12.81,47.84626,-54.09684
2019-01-22 03:10:00+00:00,247.8714,1.15,12.73,47.84626,-54.09684
2019-01-22 03:20:00+00:00,230.6447,1.14,12.81,47.84626,-54.09684
2019-01-22 03:30:00+00:00,210.5931,1.14,12.81,47.84626,-54.09684
2019-01-22 03:40:00+00:00,221.2914,1.14,12.89,47.84626,-54.09684
2019-01-22 03:50:00+00:00,220.4397,1.13,12.89,47.84626,-54.09684
2019-01-22 04:00:00+00:00,194.2581,1.17,12.81,47.84626,-54.09684
2019-01-22 04:10:00+00:00,189.6165,1.17,12.73,47.84626,-54.09684
2019-01-22 04:20:00+00:00,196.1231,1.16,12.81,47.84626,-54.09684
2019-01-22 04:30:00+00:00,193.8048,1.16,12.81,47.84626,-54.09684
2019-01-22 04:40:00+00:00,192.9915,1.19,12.89,47.84626,-54.09684
2019-01-22 04:50:00+00:00,198.0448,1.2,12.89,47.84626,-54.09684
2019-01-22 05:00:00+00:00,189.6881,1.2,12.81,47.84626,-54.09684
2019-01-22 05:10:00+00:00,173.5282,1.2,12.73,47.84626,-54.09684
2019-01-22 05:20:00+00:00,179.7115,1.2,12.81,47.84626,-54.09684
2019-01-22 05:30:00+00:00,195.5465,1.2,12.81,47.84626,-54.09684
2019-01-22 05:40:00+00:00,188.2831,1.2,12.81,47.84626,-54.09684
2019-01-22 05:50:00+00:00,177.5698,1.19,12.89,47.84626,-54.09684
2019-01-22 06:00:00+00:00,186.6915,1.17,12.81,47.84626,-54.09684
2019-01-22 06:10:00+00:00,184.1914,1.16,12.73,47.84626,-54.09684
2019-01-22 06:20:00+00:00,177.5115,1.15,12.81,47.84626,-54.09684
2019-01-22 06:30:00+00:00,187.8965,1.11,12.81,47.84626,-54.09684
2019-01-22 06:40:00+00:00,200.2665,1.1,12.81,47.84626,-54.09684
2019-01-22 06:50:00+00:00,211.3098,1.1,12.89,47.84626,-54.09684
2019-01-22 07:00:00+00:00,209.8164,1.1,12.81,47.84626,-54.09684
2019-01-22 07:10:00+00:00,207.843,1.09,12.73,47.84626,-54.09684
2019-01-22 07:20:00+00:00,219.9098,1.09,12.81,47.84626,-54.09684
2019-01-22 07:30:00+00:00,222.9864,1.1,12.81,47.84626,-54.09684
2019-01-22 07:40:00+00:00,221.0631,1.1,12.81,47.84626,-54.09684
2019-01-22 07:50:00+00:00,224.8098,1.1,12.81,47.84626,-54.09684
2019-01-22 08:00:00+00:00,234.6481,1.1,12.81,47.84626,-54.09684
2019-01-22 08:10:00+00:00,239.9364,1.1,12.73,47.84626,-54.09684
2019-01-22 08:20:00+00:00,236.1165,1.1,12.81,47.84626,-54.09684
2019-01-22 08:30:00+00:00,240.9897,1.1,12.81,47.84626,-54.09684
2019-01-22 08:40:00+00:00,255.218,1.1,12.81,47.84626,-54.09684
2019-01-22 08:50:00+00:00,254.1798,1.1,12.81,47.84626,-54.09684
2019-01-22 09:00:00+00:00,255.8914,1.0,12.81,47.84626,-54.09684
2019-01-22 09:10:00+00:00,269.7947,1.0,12.73,47.84626,-54.09684
2019-01-22 09:20:00+00:00,277.773,1.0,12.81,47.84626,-54.09684
2019-01-22 09:30:00+00:00,278.9664,0.9,12.81,47.84626,-54.09684
2019-01-22 09:40:00+00:00,288.3113,0.95,12.81,47.84626,-54.09684
2019-01-22 09:50:00+00:00,297.168,0.99,12.81,47.84626,-54.09684
2019-01-22 10:00:00+00:00,303.9764,1.0,12.73,47.84626,-54.09684
2019-01-22 10:10:00+00:00,319.9647,1.0,12.73,47.84626,-54.09684
2019-01-22 10:20:00+00:00,326.8947,1.0,12.81,47.84626,-54.09684
2019-01-22 10:30:00+00:00,336.5729,1.0,12.81,47.84626,-54.09684
2019-01-22 10:40:00+00:00,355.5946,1.0,12.81,47.84626,-54.09684
2019-01-22 10:50:00+00:00,368.4996,1.0,12.81,47.84626,-54.09684
2019-01-22 11:00:00+00:00,372.483,1.0,12.73,47.84626,-54.09684
2019-01-22 11:10:00+00:00,381.1163,1.0,12.73,47.84626,-54.09684
2019-01-22 11:20:00+00:00,398.3378,1.0,12.81,47.84626,-54.09684
2019-01-22 11:30:00+00:00,404.6663,1.0,12.81,47.84626,-54.09684
2019-01-22 11:40:00+00:00,409.2346,1.0,12.81,47.84626,-54.09684
2019-01-22 11:50:00+00:00,422.8711,1.0,12.81,47.84626,-54.09684
2019-01-22 12:00:00+00:00,424.3962,1.0,12.73,47.84626,-54.09684
2019-01-22 12:10:00+00:00,415.0978,1.0,12.73,47.84626,-54.09684
2019-01-22 12:20:00+00:00,424.6195,1.0,12.81,47.84626,-54.09684
2019-01-22 12:30:00+00:00,436.4329,1.0,12.81,47.84626,-54.09684
2019-01-22 12:40:00+00:00,429.6745,1.0,12.81,47.84626,-54.09684
2019-01-22 12:50:00+00:00,426.4446,1.0,12.89,47.84626,-54.09684
2019-01-22 13:00:00+00:00,428.5279,1.0,12.81,47.84626,-54.09684
2019-01-22 13:10:00+00:00,417.7878,1.0,12.73,47.84626,-54.09684
2019-01-22 13:20:00+00:00,413.6296,1.0,12.89,47.84626,-54.09684
2019-01-22 13:30:00+00:00,420.7612,1.0,12.89,47.84626,-54.09684
2019-01-22 13:40:00+00:00,414.1412,1.0,12.89,47.84626,-54.09684
2019-01-22 13:50:00+00:00,394.2213,1.0,12.97,47.84626,-54.09684
2019-01-22 14:00:00+00:00,394.4763,1.0,12.89,47.84626,-54.09684
2019-01-22 14:10:00+00:00,394.1296,1.0,12.81,47.84626,-54.09684
2019-01-22 14:20:00+00:00,373.6929,1.0,12.97,47.84626,-54.09684
2019-01-22 14:30:00+00:00,360.2213,1.0,13.05,47.84626,-54.09684
2019-01-22 14:40:00+00:00,364.223,1.0,13.13,47.84626,-54.09684
2019-01-22 14:50:00+00:00,351.8013,1.0,13.13,47.84626,-54.09684
2019-01-22 15:00:00+00:00,321.8279,1.0,13.05,47.84626,-54.09684
2019-01-22 15:10:00+00:00,321.8213,1.0,12.97,47.84626,-54.09684
2019-01-22 15:20:00+00:00,328.2864,1.0,13.05,47.84626,-54.09684
2019-01-22 15:30:00+00:00,308.0563,1.0,13.05,47.84626,-54.09684
2019-01-22 15:40:00+00:00,291.123,1.0,13.13,47.84626,-54.09684
2019-01-22 15:50:00+00:00,289.298,1.0,13.13,47.84626,-54.09684
2019-01-22 16:00:00+00:00,288.488,1.0,13.13,47.84626,-54.09684
2019-01-22 16:10:00+00:00,265.3447,1.0,13.13,47.84626,-54.09684
2019-01-22 16:20:00+00:00,255.2448,1.0,13.29,47.84626,-54.09684
2019-01-22 16:30:00+00:00,251.4431,1.0,13.37,47.84626,-54.09684
2019-01-22 16:40:00+00:00,237.6364,1.0,13.6,47.84626,-54.09684
2019-01-22 16:50:00+00:00,221.0231,1.0,13.92,47.84626,-54.09684
2019-01-22 17:00:00+00:00,221.1964,1.0,14.4,47.84626,-54.09684
2019-01-22 17:10:00+00:00,227.9631,1.0,14.32,47.84626,-54.09684
2019-01-22 17:20:00+00:00,221.5397,1.0,14.48,47.84626,-54.09684
2019-01-22 17:30:00+00:00,213.5181,1.0,14.4,47.84626,-54.09684
2019-01-22 17:40:00+00:00,215.3615,1.0,14.48,47.84626,-54.09684
2019-01-22 17:50:00+00:00,212.6331,1.0,14.48,47.84626,-54.09684
2019-01-22 18:00:00+00:00,197.4965,1.0,14.24,47.84626,-54.09684
2019-01-22 18:10:00+00:00,197.1748,1.0,14.0,47.84626,-54.09684
2019-01-22 18:20:00+00:00,202.8981,1.0,13.92,47.84626,-54.09684
2019-01-22 18:30:00+00:00,196.2298,1.0,13.84,47.84626,-54.09684
2019-01-22 18:40:00+00:00,194.6331,1.0,13.76,47.84626,-54.09684
2019-01-22 18:50:00+00:00,193.0115,1.0,13.68,47.84626,-54.09684
2019-01-22 19:00:00+00:00,193.2214,1.0,13.53,47.84626,-54.09684
2019-01-22 19:10:00+00:00,191.2265,1.0,13.29,47.84626,-54.09684
2019-01-22 19:20:00+00:00,188.1981,1.0,13.29,47.84626,-54.09684
2019-01-22 19:30:00+00:00,191.7348,1.0,13.29,47.84626,-54.09684
2019-01-22 19:40:00+00:00,196.6515,1.0,13.29,47.84626,-54.09684
2019-01-22 19:50:00+00:00,200.9681,1.0,13.21,47.84626,-54.09684
2019-01-22 20:00:00+00:00,196.5314,1.0,13.13,47.84626,-54.09684
2019-01-22 20:10:00+00:00,194.5181,1.0,13.05,47.84626,-54.09684
2019-01-22 20:20:00+00:00,205.1281,1.0,13.13,47.84626,-54.09684
2019-01-22 20:30:00+00:00,211.0965,1.0,13.13,47.84626,-54.09684
2019-01-22 20:40:00+00:00,212.1698,1.01,13.13,47.84626,-54.09684
2019-01-22 20:50:00+00:00,219.9998,1.04,13.13,47.84626,-54.09684
2019-01-22 21:00:00+00:00,234.0865,1.04,13.05,47.84626,-54.09684
2019-01-22 21:10:00+00:00,239.2614,1.06,12.97,47.84626,-54.09684
2019-01-22 21:20:00+00:00,242.5497,1.08,13.05,47.84626,-54.09684
2019-01-22 21:30:00+00:00,249.8814,1.08,13.05,47.84626,-54.09684
2019-01-22 21:40:00+00:00,265.0864,1.07,13.13,47.84626,-54.09684
2019-01-22 21:50:00+00:00,274.0598,1.04,13.13,47.84626,-54.09684
2019-01-22 22:00:00+00:00,280.308,1.05,13.05,47.84626,-54.09684
2019-01-22 22:10:00+00:00,286.1414,1.05,12.97,47.84626,-54.09684
2019-01-22 22:20:00+00:00,296.1346,1.05,13.05,47.84626,-54.09684
2019-01-22 22:30:00+00:00,310.1047,1.05,13.05,47.84626,-54.09684
2019-01-22 22:40:00+00:00,325.2263,1.04,13.05,47.84626,-54.09684
2019-01-22 22:50:00+00:00,333.2513,1.06,13.05,47.84626,-54.09684
2019-01-22 23:00:00+00:00,337.153,1.07,12.97,47.84626,-54.09684
2019-01-22 23:10:00+00:00,349.6829,1.05,12.97,47.84626,-54.09684
2019-01-22 23:20:00+00:00,367.8679,1.07,13.05,47.84626,-54.09684
2019-01-22 23:30:00+00:00,372.2196,1.08,13.05,47.84626,-54.09684
2019-01-22 23:40:00+00:00,370.5346,1.09,13.05,47.84626,-54.09684
2019-01-22 23:50:00+00:00,381.4913,1.08,13.05,47.84626,-54.09684
